Wind_Speed
25 27 27 26 25 24 24 25 26 25 24 23 23 22 21 20 19 20 19 20 20 19 18 17 16 16 15 15 15 15 15 15 14 14 13 13 12 12 12 11 11 11 10 10 10 10 10 10 10 10 10 9 8 8 8 8 8 7 7 6 6 6 6
21 25 28 28 28 27 26 25 27 27 26 24 24 23 22 21 21 21 22 22 21 21 20 19 19 18 17 16 16 16 16 16 15 15 15 14 14 13 13 12 12 12 11 11 11 11 11 10 10 10 9 9 9 9 9 8 8 8 8 7 7 6 6
19 20 25 30 32 31 29 28 27 28 28 26 25 24 22 23 23 23 24 24 23 23 22 22 21 20 19 18 18 17 17 17 16 16 16 15 15 14 13 13 13 12 12 12 12 12 11 11 10 11 10 10 9 9 8 8 8 8 8 8 7 7 7
21 20 22 27 34 35 32 32 30 28 29 28 26 25 25 25 25 26 26 26 25 25 25 24 24 23 21 20 20 19 18 18 17 17 17 16 16 15 14 14 14 13 13 13 13 12 12 12 12 11 11 10 10 9 9 8 8 9 9 8 8 8 8
21 22 20 21 31 37 34 33 34 31 30 30 29 28 28 28 28 27 27 27 27 27 27 27 25 24 23 23 22 21 20 19 19 18 18 17 17 16 16 16 15 15 14 14 14 14 13 13 13 12 12 11 11 10 10 10 9 10 10 9 9 9 9
20 20 19 17 22 34 36 35 36 35 33 31 31 30 30 30 30 29 29 28 28 29 29 28 27 26 26 25 24 24 23 22 21 20 19 18 18 18 17 17 17 16 16 15 15 15 15 15 14 14 13 12 12 12 12 11 11 11 11 11 11 11 11
20 20 19 16 16 25 35 40 40 38 35 32 31 32 31 31 31 30 30 29 29 30 29 29 28 28 27 26 26 26 25 24 23 22 21 20 19 19 19 18 18 18 17 17 16 17 16 16 16 15 15 14 14 13 13 13 12 12 13 13 12 12 13
21 20 21 19 16 18 26 39 44 39 35 33 32 32 32 31 30 30 30 30 29 29 28 28 29 28 28 27 27 27 26 26 25 24 23 22 21 20 20 19 19 19 18 18 18 18 18 18 17 17 16 16 15 15 14 14 14 14 14 14 13 14 14
22 21 21 21 21 19 19 29 40 40 35 33 33 34 33 32 31 31 30 30 29 29 28 29 29 29 29 29 28 29 28 27 26 25 24 23 23 22 21 21 20 20 19 19 19 19 19 19 18 18 17 17 17 16 15 15 15 15 15 15 14 14 14
20 21 22 22 23 24 20 21 31 38 38 36 35 35 34 33 34 33 32 31 30 30 30 30 31 30 30 30 30 29 29 27 27 27 26 25 24 24 23 22 22 21 21 20 20 20 20 19 19 18 18 18 18 18 17 16 15 15 15 15 14 15 15
20 19 21 23 24 25 25 23 24 29 35 38 38 36 34 35 36 35 33 33 32 32 32 32 32 31 30 30 30 29 28 28 28 27 26 25 25 25 25 24 23 22 21 21 21 21 21 20 19 19 19 19 20 19 18 17 16 16 15 15 15 15 16
23 21 21 23 24 25 26 26 23 21 23 29 35 38 39 37 36 36 35 35 34 33 34 33 32 32 31 30 29 29 28 29 28 28 27 27 26 26 26 25 24 23 23 22 22 22 21 21 20 19 19 19 20 19 18 18 17 16 16 17 17 17 17
23 23 23 24 25 26 25 25 26 24 21 20 24 32 40 41 38 37 37 36 35 34 34 34 33 32 31 30 29 29 28 28 29 29 29 28 28 27 26 26 26 25 25 24 23 23 23 22 21 20 20 20 19 19 18 18 17 17 18 18 18 18 18
24 24 24 25 25 26 27 27 27 28 26 24 22 26 37 44 42 40 39 37 36 35 34 34 35 33 32 31 30 29 29 29 29 29 29 28 27 27 27 26 26 27 27 26 25 25 24 23 23 22 21 21 20 19 19 19 19 19 19 20 20 20 19
26 26 26 26 26 26 27 28 29 30 30 28 24 24 32 45 45 41 41 39 36 36 35 34 34 35 34 32 31 30 31 31 29 28 28 28 27 27 27 26 26 27 28 28 27 27 26 25 25 24 23 22 22 21 21 21 21 21 21 22 22 21 21
28 30 29 27 26 26 28 29 29 31 31 30 27 22 24 42 51 43 41 42 37 35 37 36 35 35 35 33 32 32 33 32 30 29 29 28 28 28 27 26 27 29 31 30 30 29 28 28 27 26 26 25 25 24 24 24 23 23 24 25 24 23 23
27 28 29 27 24 25 27 28 28 29 30 31 29 21 14 26 46 47 41 39 37 35 36 36 36 36 35 34 34 35 34 33 33 33 32 31 31 31 30 28 29 31 33 32 32 32 31 30 30 29 29 29 29 28 28 27 26 27 28 27 26 26 26
23 19 20 21 22 23 25 26 27 27 27 28 28 25 16 12 25 38 42 39 35 34 35 36 36 37 36 36 36 36 35 35 35 35 34 34 34 33 32 31 31 33 34 34 34 34 33 33 33 32 32 32 32 31 31 30 29 29 30 29 29 29 28
28 21 19 18 20 21 22 23 25 26 26 25 24 24 21 16 13 19 32 39 37 34 34 35 36 36 37 38 38 38 37 37 37 36 35 36 36 36 36 35 34 36 36 36 36 36 36 36 36 35 35 34 34 33 33 33 31 31 32 32 31 30 29
32 28 24 21 20 20 20 21 23 24 25 24 22 20 19 18 16 13 14 25 32 33 34 36 37 38 40 41 41 40 40 40 39 38 38 38 38 39 39 38 38 38 38 39 39 39 38 38 38 38 37 35 34 35 35 35 35 34 34 34 32 32 32
31 29 25 23 21 20 19 20 20 21 22 23 22 19 17 17 18 16 12 11 15 20 24 27 29 32 35 40 43 43 42 41 39 39 40 41 41 41 41 41 41 41 42 42 42 41 39 38 39 40 39 38 37 37 37 37 37 36 37 37 36 35 34
27 27 25 23 21 20 19 18 17 18 19 20 21 20 18 17 17 18 17 14 13 13 14 16 17 19 21 26 35 42 44 43 42 42 43 45 45 45 44 44 43 43 45 45 44 43 42 42 42 41 40 40 40 40 40 38 36 36 38 40 39 37 36
25 26 25 24 22 20 19 18 17 16 17 18 19 20 19 18 18 19 19 17 16 17 17 17 16 14 12 13 20 29 35 38 40 44 48 49 48 48 47 46 47 48 49 48 48 47 47 47 46 43 41 42 43 44 43 40 37 37 38 41 41 40 38
23 24 25 24 23 21 20 19 18 17 16 17 17 18 17 17 17 18 19 18 18 19 20 21 20 18 14 12 13 18 24 27 28 32 40 44 46 47 47 47 48 49 49 49 50 51 51 51 50 46 43 44 45 45 45 42 39 39 39 40 41 41 40
24 23 23 24 23 21 21 20 19 18 18 17 16 16 16 16 15 17 18 18 18 19 20 22 22 22 19 17 16 17 23 26 23 21 25 30 33 35 36 39 45 46 45 47 48 50 52 54 53 50 47 46 46 46 47 45 42 41 41 41 42 41 40
24 23 23 23 23 22 21 21 20 19 18 17 17 17 18 17 17 17 19 19 19 19 20 21 22 23 22 20 20 21 23 27 27 23 21 21 22 21 18 22 35 41 40 41 43 45 50 53 54 53 50 48 48 48 48 47 44 42 42 42 42 41 40
25 25 24 24 24 24 23 22 22 21 20 19 19 20 20 20 19 19 19 20 21 20 20 21 22 23 22 21 21 23 26 28 28 28 26 24 23 21 16 15 21 27 30 34 37 40 43 47 50 53 52 50 49 48 47 46 44 43 43 42 42 41 39
27 27 27 26 25 25 25 24 23 23 22 21 21 21 21 21 21 21 20 20 21 22 22 22 22 23 23 23 22 23 26 28 28 27 29 29 28 27 26 23 22 21 21 24 28 34 39 42 43 46 47 47 47 45 44 44 44 43 43 42 42 41 39
27 27 27 27 26 25 25 24 24 24 23 23 23 22 21 20 21 21 21 20 21 22 22 23 23 24 25 25 25 24 25 27 27 26 26 29 29 28 27 27 26 25 23 20 20 24 32 39 41 41 41 42 43 43 42 43 44 44 44 44 44 43 42
27 28 27 27 27 27 26 25 25 25 24 24 24 22 21 21 21 21 21 21 21 21 22 23 24 25 26 27 27 26 25 26 27 26 26 27 29 29 27 27 27 28 27 26 23 21 22 29 36 39 38 38 40 42 41 40 40 42 43 44 44 45 45
29 29 29 29 29 28 27 27 26 25 25 25 25 24 22 21 21 22 22 22 22 22 22 23 24 25 26 27 28 27 27 27 27 27 27 27 28 28 26 24 24 25 25 26 27 25 22 22 26 31 34 35 36 39 40 39 40 41 42 42 43 44 45
29 29 29 29 29 28 28 27 27 26 26 26 25 25 23 22 22 22 23 23 23 23 23 24 24 25 26 27 28 28 28 28 28 27 27 27 28 28 26 23 21 22 22 23 24 25 24 22 22 23 26 27 27 29 30 31 32 32 33 34 37 40 43
27 28 28 27 27 27 27 26 26 26 25 25 25 24 24 23 22 23 23 24 24 25 25 24 25 25 26 26 27 28 28 28 28 27 27 27 27 27 27 25 22 21 22 21 21 22 23 23 23 22 22 21 21 21 21 22 23 24 24 26 29 31 35
22 23 24 24 24 24 24 24 24 24 24 24 24 24 24 23 23 23 24 25 25 26 26 26 26 26 26 26 27 27 28 28 28 28 27 27 27 27 27 26 24 23 23 23 23 23 23 24 25 26 26 25 24 23 23 22 24 25 25 26 26 26 27
17 18 19 20 20 21 22 22 22 22 23 23 23 23 23 24 23 23 24 25 26 27 27 27 27 27 27 27 27 27 28 28 29 29 29 28 28 28 28 28 27 26 25 26 26 26 25 26 26 27 29 31 31 31 31 30 30 30 30 29 29 28 27
13 14 15 16 17 18 19 20 20 21 23 23 24 24 24 24 24 24 25 25 26 27 28 28 28 29 29 28 29 29 29 29 29 30 30 30 30 30 30 30 30 29 29 29 29 29 28 28 28 29 30 32 34 36 37 37 37 37 37 36 35 33 31
12 12 13 14 15 16 16 17 19 20 22 23 24 24 25 24 25 25 26 27 27 28 28 29 29 30 30 30 30 31 31 31 31 31 31 32 32 32 32 32 32 32 32 32 31 31 31 31 31 31 31 33 35 37 38 39 39 39 39 39 38 37 36
11 12 12 13 13 14 14 15 17 19 21 22 23 23 24 24 25 25 26 27 28 28 29 29 30 31 31 32 32 32 32 32 33 33 33 34 34 34 35 35 35 35 35 35 35 34 34 34 34 34 34 34 35 36 38 39 40 39 39 38 38 38 38
Wind_Direction
230 230 226 224 224 224 218 211 210 213 213 210 211 212 214 218 221 223 225 228 229 226 218 215 219 220 218 216 212 207 205 205 205 204 202 203 205 205 205 203 204 207 207 205 205 206 209 211 211 211 207 204 202 202 204 204 205 208 209 206 204 211 219
232 229 227 228 229 230 228 220 212 211 212 210 209 211 213 215 219 222 225 226 227 229 224 219 218 219 219 219 217 213 210 207 207 208 206 205 206 207 207 207 206 208 208 208 209 211 212 214 216 218 217 212 206 204 206 206 206 207 210 208 205 208 214
244 236 229 227 228 229 232 230 221 212 212 211 209 209 212 215 219 221 223 224 225 227 228 224 220 217 217 219 220 218 215 213 211 211 211 210 210 211 211 210 210 211 210 211 212 214 216 216 217 219 219 217 214 210 209 208 207 208 210 210 208 208 210
250 250 245 233 225 225 229 231 228 218 212 211 209 209 211 214 218 221 222 223 223 226 228 227 225 220 216 217 220 221 220 220 218 216 216 216 216 217 217 216 215 214 214 215 215 216 217 218 219 220 220 220 219 216 216 215 213 214 213 212 213 215 215
254 255 260 247 225 221 227 232 231 225 216 212 209 209 211 215 218 220 222 222 221 223 227 228 227 225 221 218 218 221 223 224 224 223 221 221 221 221 221 221 220 219 218 219 221 220 220 220 221 222 223 224 223 221 222 222 222 224 222 218 217 221 223
256 255 261 260 230 220 224 231 234 230 222 216 213 211 212 214 218 220 221 222 221 222 225 227 228 227 225 222 220 221 223 225 226 227 226 225 224 224 224 224 223 223 222 222 224 224 224 224 223 222 224 226 227 226 226 227 229 230 230 228 227 228 230
252 253 253 258 247 231 226 227 231 231 226 222 218 217 218 217 218 220 222 222 222 222 224 226 227 228 228 227 226 224 224 225 227 229 230 230 229 228 228 227 226 225 225 224 226 227 227 228 227 224 224 225 227 229 229 231 233 234 234 232 231 233 235
249 253 252 251 254 254 239 228 227 226 224 224 224 223 224 224 222 224 225 224 223 223 224 226 228 229 229 229 230 230 228 228 230 231 233 234 234 233 232 231 230 228 227 227 228 229 228 230 230 229 227 226 227 229 230 231 233 235 235 233 232 235 238
247 252 255 253 250 256 253 231 224 223 220 220 225 227 226 227 227 228 228 228 226 224 223 225 226 228 229 229 231 232 232 232 233 234 236 237 238 238 236 235 234 232 231 230 230 231 231 231 231 231 231 231 230 229 229 228 230 232 233 232 231 233 236
245 250 255 258 254 252 250 232 222 224 223 220 223 226 226 227 227 229 230 229 229 226 223 224 225 226 228 229 230 231 232 234 236 237 238 240 241 242 241 239 238 237 235 234 232 232 233 233 233 233 232 232 232 231 229 228 228 231 233 233 232 232 233
244 251 256 258 258 256 252 242 229 226 226 225 224 224 225 228 229 230 231 230 230 228 226 225 226 227 228 229 230 230 231 233 235 237 239 241 243 246 247 246 243 241 239 238 237 236 235 234 234 235 234 233 233 232 231 229 228 229 231 232 232 232 232
246 251 259 261 262 261 260 258 255 246 235 232 231 226 225 228 231 232 232 232 232 231 229 228 228 229 230 231 232 231 231 232 234 236 237 239 242 245 248 251 250 247 243 240 239 239 239 238 236 236 236 235 235 234 232 230 228 230 232 232 232 233 233
246 250 257 264 266 266 266 268 272 274 270 262 250 236 227 226 229 232 232 232 233 233 232 231 230 231 231 232 233 233 233 233 234 235 235 236 239 241 243 247 250 250 248 244 241 240 241 241 239 238 238 238 239 238 236 234 232 232 234 234 234 234 234
244 248 255 263 269 272 271 271 273 277 278 274 268 253 234 225 225 228 228 230 232 231 233 234 233 232 231 232 233 233 234 235 235 236 236 237 240 243 244 245 247 249 248 246 245 243 242 242 241 239 240 241 242 242 241 240 239 238 238 238 238 237 236
242 245 253 261 267 273 275 274 273 275 276 271 268 266 242 224 220 226 228 230 231 228 229 233 235 235 234 232 233 233 235 237 238 239 239 238 240 242 244 245 246 248 248 246 244 244 243 243 243 242 242 242 243 244 243 242 242 242 242 242 241 241 241
249 249 252 259 266 271 274 275 275 276 278 273 267 272 250 221 216 220 225 227 228 226 226 229 233 236 235 234 234 234 235 238 240 240 241 243 243 243 242 242 242 247 251 248 245 244 243 244 245 246 246 246 245 245 245 244 243 242 243 243 243 243 243
251 247 245 251 261 269 273 277 279 278 282 281 271 271 267 225 216 218 221 223 225 226 227 229 231 235 235 234 234 235 236 239 240 240 241 243 245 245 245 244 243 247 253 254 250 248 245 244 244 246 247 248 248 248 248 247 246 245 244 243 242 243 243
242 239 242 249 258 267 274 279 282 282 285 291 282 271 278 261 227 223 224 225 226 227 229 231 233 234 234 233 235 236 237 238 239 241 242 242 244 246 247 246 243 244 249 253 253 252 249 246 244 245 247 249 250 250 251 250 250 250 249 247 245 244 243
241 248 256 257 259 267 275 281 286 287 287 294 293 278 273 283 275 241 229 228 230 232 234 236 238 236 233 232 234 236 237 237 239 242 243 242 243 245 247 246 244 243 245 248 250 251 251 251 248 246 245 248 251 253 255 255 253 253 253 252 250 249 247
241 249 254 255 258 265 273 280 286 291 292 295 297 288 275 273 285 287 249 229 229 232 235 239 242 242 239 236 235 235 235 236 238 241 242 242 243 244 246 246 246 246 246 247 248 249 251 253 254 251 248 247 250 253 256 258 257 256 256 256 255 254 253
237 243 246 250 254 259 267 276 284 290 296 301 300 295 284 273 273 285 290 265 243 236 234 237 241 243 242 240 237 236 236 237 238 241 242 243 244 245 246 247 248 250 250 250 251 250 250 253 255 254 251 249 247 247 250 252 254 256 257 258 257 256 256
228 235 239 242 246 252 258 267 277 286 293 301 305 302 294 284 276 277 286 290 286 272 255 246 245 243 241 240 237 237 238 239 241 243 245 245 246 247 248 249 250 251 252 253 254 252 251 251 251 250 253 252 249 246 245 245 247 251 255 257 257 257 257
216 226 232 236 240 245 251 258 267 278 287 293 301 305 303 296 286 283 287 289 289 287 279 270 265 261 254 246 237 235 237 240 243 245 246 246 247 248 251 252 252 252 253 254 254 253 251 250 250 249 251 251 250 249 248 244 241 244 249 253 254 254 256
211 219 226 233 238 241 246 253 259 266 276 285 291 296 300 300 292 287 288 288 286 285 283 280 281 281 281 271 248 236 233 234 242 248 247 246 246 246 249 253 253 253 254 253 252 252 251 250 250 250 248 247 246 247 248 246 242 242 246 250 252 252 252
212 217 223 231 237 240 244 250 255 261 267 274 281 284 285 287 286 282 282 283 283 281 279 280 282 285 287 281 266 252 238 234 244 253 243 238 241 242 248 256 256 252 251 251 249 249 250 249 248 247 245 243 242 243 244 245 244 244 247 249 250 250 250
218 222 226 231 236 241 245 249 254 259 262 266 273 277 276 275 276 275 274 277 280 280 278 279 280 282 285 285 280 275 263 254 261 265 249 236 237 235 239 255 255 250 250 250 248 246 246 247 247 246 245 244 243 242 242 242 243 245 248 249 248 249 249
232 232 234 236 240 243 248 251 254 256 258 264 272 275 272 270 271 271 271 271 274 276 276 277 278 279 282 283 282 281 278 274 276 276 269 263 262 259 260 269 266 261 258 253 248 243 242 244 245 245 246 246 244 243 243 242 242 245 248 249 249 248 247
236 237 239 241 243 246 249 252 255 255 258 268 276 274 268 267 268 269 269 268 269 271 272 273 274 275 276 276 277 278 279 279 281 282 279 279 281 280 280 282 285 284 277 265 256 249 245 245 245 245 246 246 244 244 246 246 245 246 249 251 251 249 246
233 235 238 242 245 248 250 253 256 258 263 272 277 271 263 262 264 266 266 265 264 266 268 268 269 270 270 271 272 273 276 278 280 282 283 284 285 286 286 284 284 285 287 287 281 267 255 250 248 249 250 247 245 246 250 250 248 248 250 252 252 250 247
234 236 239 242 246 249 253 256 259 262 268 273 274 267 260 258 259 260 261 261 260 261 263 264 265 266 267 269 270 271 272 274 276 278 279 281 283 285 287 288 287 286 286 287 290 290 278 261 251 248 250 249 246 247 249 251 251 251 253 254 253 251 248
238 239 242 244 248 251 255 259 263 266 271 273 270 264 259 257 255 254 254 256 258 258 259 260 261 262 263 264 267 268 268 269 271 273 275 277 280 283 286 288 289 288 287 285 285 288 291 283 265 252 249 250 249 248 249 251 254 255 257 257 254 251 249
240 242 244 246 249 252 257 261 265 268 271 271 267 262 260 257 253 250 250 252 253 255 256 257 258 259 259 260 262 263 264 265 266 268 270 272 275 278 281 283 284 283 281 281 281 281 283 285 280 264 252 247 244 244 245 249 252 255 257 256 252 248 248
239 241 244 246 248 251 255 259 263 266 266 265 262 260 259 257 251 248 248 249 250 252 253 254 254 255 256 257 258 260 262 263 264 264 265 266 268 271 275 277 276 276 275 275 274 274 273 274 274 268 258 247 240 240 242 243 245 249 252 253 250 246 244
235 236 238 240 242 245 249 252 255 257 258 256 255 254 255 255 252 249 248 249 251 252 254 255 254 253 253 254 255 256 258 260 262 262 262 262 263 264 267 269 268 268 268 269 268 268 267 265 264 262 259 253 248 247 246 244 244 246 250 254 256 252 247
232 233 234 235 237 238 241 243 246 248 248 248 249 250 251 253 253 252 251 251 253 254 257 258 258 257 257 256 255 255 256 257 259 260 260 261 261 260 261 263 264 263 262 262 263 265 263 261 259 258 257 256 254 253 255 256 256 257 259 262 262 260 257
238 237 237 237 238 238 239 241 243 245 246 246 247 248 249 252 254 256 256 256 257 258 260 261 262 262 262 261 260 259 259 258 259 260 260 260 261 261 260 260 262 262 262 260 260 261 261 260 259 257 257 257 257 257 259 261 263 264 265 266 265 264 262
247 247 246 245 244 244 244 246 248 249 250 250 249 249 250 252 255 258 260 262 262 262 262 263 265 265 266 266 265 264 263 262 262 262 262 262 262 262 263 262 262 262 263 263 261 260 260 260 259 258 256 257 258 259 261 263 265 266 267 268 268 268 266
248 249 250 250 250 251 251 252 253 254 254 254 254 254 254 255 257 259 263 266 267 267 267 266 267 268 269 269 270 269 268 267 266 265 265 265 265 265 265 265 265 264 264 265 265 264 262 260 260 260 259 257 257 258 259 262 264 265 266 267 268 268 267
Height
5893 5895 5897 5898 5899 5901 5903 5905 5906 5907 5908 5909 5909 5911 5912 5913 5915 5916 5917 5918 5918 5919 5920 5921 5922 5923 5924 5925 5925 5926 5927 5928 5929 5929 5930 5931 5931 5932 5933 5934 5936 5936 5937 5938 5939 5939 5940 5940 5941 5942 5942 5942 5943 5944 5944 5945 5945 5946 5946 5946 5947 5947 5947
5891 5893 5894 5896 5897 5899 5901 5903 5904 5906 5906 5907 5908 5909 5910 5912 5913 5915 5915 5916 5917 5918 5919 5920 5921 5922 5923 5923 5924 5925 5926 5927 5928 5928 5929 5930 5930 5931 5932 5933 5935 5935 5936 5937 5938 5939 5939 5940 5941 5941 5942 5942 5943 5943 5944 5944 5945 5945 5946 5946 5947 5947 5947
5889 5890 5892 5893 5894 5896 5898 5900 5903 5904 5905 5906 5907 5908 5909 5910 5912 5912 5913 5914 5915 5916 5917 5918 5919 5920 5921 5922 5923 5924 5925 5925 5926 5927 5928 5929 5930 5930 5931 5932 5933 5935 5935 5936 5937 5938 5939 5939 5940 5941 5941 5942 5942 5943 5943 5944 5944 5945 5946 5946 5946 5947 5947
5887 5887 5888 5889 5890 5892 5894 5896 5899 5902 5903 5904 5905 5906 5907 5908 5909 5910 5911 5912 5913 5914 5915 5916 5917 5919 5920 5921 5922 5922 5923 5924 5925 5926 5927 5928 5929 5930 5930 5931 5932 5933 5934 5935 5936 5937 5938 5938 5939 5940 5941 5941 5942 5942 5943 5943 5944 5945 5945 5946 5946 5946 5946
5885 5885 5885 5886 5887 5889 5891 5893 5896 5899 5901 5901 5902 5903 5904 5905 5906 5908 5909 5910 5911 5912 5913 5914 5915 5917 5918 5920 5921 5921 5922 5923 5924 5925 5926 5927 5928 5928 5929 5930 5931 5932 5933 5934 5935 5936 5936 5937 5938 5939 5940 5940 5941 5941 5942 5943 5943 5944 5945 5945 5946 5946 5946
5883 5883 5883 5884 5884 5886 5888 5890 5892 5895 5898 5899 5900 5900 5901 5902 5904 5905 5906 5907 5909 5910 5911 5912 5914 5915 5917 5918 5919 5920 5921 5921 5922 5923 5924 5925 5926 5927 5928 5928 5929 5930 5931 5932 5933 5934 5935 5936 5937 5937 5938 5939 5940 5940 5941 5942 5942 5943 5944 5944 5945 5945 5945
5881 5881 5881 5882 5883 5884 5885 5886 5887 5890 5894 5897 5898 5899 5899 5900 5902 5903 5904 5905 5906 5908 5909 5911 5912 5913 5915 5916 5918 5918 5919 5920 5920 5922 5923 5924 5925 5925 5926 5927 5928 5929 5930 5930 5931 5932 5933 5934 5935 5936 5937 5937 5938 5939 5940 5940 5941 5942 5942 5943 5944 5944 5944
5879 5879 5879 5880 5881 5881 5881 5881 5883 5886 5889 5893 5895 5897 5898 5899 5900 5901 5902 5903 5904 5906 5908 5909 5911 5912 5913 5914 5916 5917 5918 5919 5920 5921 5921 5922 5923 5924 5925 5926 5926 5927 5928 5929 5930 5930 5931 5932 5933 5934 5935 5936 5936 5937 5938 5939 5939 5940 5941 5941 5942 5943 5943
5878 5878 5878 5878 5878 5879 5878 5878 5880 5883 5886 5889 5891 5893 5895 5897 5898 5899 5901 5902 5903 5904 5905 5906 5907 5909 5910 5911 5913 5914 5916 5917 5918 5919 5920 5921 5922 5923 5923 5924 5925 5926 5927 5927 5928 5929 5930 5930 5931 5932 5933 5934 5935 5935 5936 5937 5938 5938 5939 5940 5941 5941 5942
5876 5876 5876 5876 5876 5876 5876 5877 5878 5880 5883 5885 5887 5889 5891 5893 5894 5896 5898 5899 5901 5902 5902 5903 5903 5905 5906 5908 5909 5911 5913 5915 5916 5917 5919 5920 5921 5921 5922 5923 5924 5925 5925 5926 5926 5927 5928 5929 5930 5930 5931 5932 5933 5934 5934 5935 5936 5937 5938 5938 5939 5940 5940
5874 5875 5875 5875 5874 5874 5874 5875 5876 5877 5879 5881 5883 5886 5888 5889 5890 5892 5894 5896 5897 5898 5899 5900 5900 5902 5904 5905 5907 5909 5911 5913 5914 5915 5916 5917 5918 5919 5920 5921 5922 5923 5924 5925 5925 5926 5926 5927 5928 5929 5929 5930 5931 5932 5933 5933 5934 5935 5936 5937 5937 5938 5938
5871 5872 5873 5873 5873 5872 5872 5872 5872 5874 5876 5878 5880 5882 5884 5886 5887 5889 5891 5892 5894 5895 5896 5897 5898 5900 5901 5903 5905 5907 5908 5910 5911 5913 5913 5914 5915 5916 5917 5919 5920 5921 5922 5923 5924 5924 5925 5926 5926 5927 5927 5928 5929 5930 5931 5931 5932 5933 5934 5935 5935 5936 5936
5869 5870 5871 5870 5870 5870 5870 5870 5870 5871 5873 5874 5876 5878 5880 5882 5884 5886 5888 5890 5891 5892 5894 5895 5896 5897 5899 5901 5902 5904 5905 5907 5908 5909 5910 5911 5912 5913 5914 5916 5917 5918 5919 5920 5921 5922 5923 5924 5925 5925 5926 5926 5927 5928 5929 5930 5930 5931 5932 5932 5933 5934 5934
5867 5868 5869 5868 5868 5868 5868 5868 5869 5869 5870 5872 5872 5873 5874 5877 5880 5882 5884 5886 5888 5890 5892 5893 5894 5895 5896 5898 5899 5901 5903 5903 5904 5906 5907 5908 5910 5911 5912 5914 5914 5915 5916 5917 5918 5919 5920 5921 5922 5923 5924 5924 5925 5926 5927 5928 5928 5929 5929 5930 5931 5932 5932
5865 5866 5867 5866 5866 5866 5865 5866 5866 5866 5867 5868 5869 5869 5869 5872 5876 5878 5881 5883 5885 5888 5890 5891 5892 5893 5894 5895 5897 5898 5899 5900 5901 5903 5904 5906 5907 5908 5910 5911 5912 5913 5914 5915 5915 5916 5917 5918 5919 5920 5921 5922 5923 5924 5925 5925 5926 5926 5927 5927 5928 5929 5930
5863 5864 5865 5864 5864 5863 5863 5863 5863 5863 5863 5864 5866 5866 5865 5866 5870 5874 5877 5879 5881 5884 5886 5889 5890 5891 5892 5893 5895 5895 5895 5897 5899 5900 5901 5903 5904 5905 5906 5908 5909 5911 5912 5912 5913 5913 5913 5915 5916 5917 5918 5919 5920 5921 5921 5922 5923 5923 5924 5924 5925 5926 5927
5861 5861 5860 5861 5861 5860 5860 5860 5861 5861 5861 5861 5862 5864 5863 5864 5867 5871 5872 5875 5877 5880 5882 5884 5886 5888 5889 5890 5891 5891 5893 5895 5896 5897 5899 5900 5900 5901 5903 5905 5907 5909 5910 5910 5910 5911 5911 5911 5912 5914 5915 5916 5917 5917 5918 5919 5920 5920 5920 5921 5922 5923 5924
5859 5857 5856 5857 5858 5858 5858 5858 5858 5859 5859 5859 5860 5862 5863 5863 5865 5868 5870 5871 5873 5876 5878 5880 5882 5883 5885 5886 5886 5888 5890 5892 5892 5894 5896 5897 5898 5899 5900 5902 5903 5904 5906 5907 5907 5909 5909 5909 5909 5910 5910 5912 5913 5914 5915 5916 5917 5917 5917 5918 5919 5919 5920
5854 5853 5854 5855 5855 5856 5856 5856 5856 5856 5857 5858 5859 5860 5862 5862 5863 5865 5866 5868 5870 5872 5874 5876 5877 5878 5880 5882 5882 5884 5886 5888 5889 5890 5892 5893 5895 5896 5896 5898 5898 5899 5900 5901 5902 5905 5906 5906 5906 5906 5907 5907 5909 5911 5912 5912 5914 5914 5914 5914 5916 5916 5917
5849 5851 5852 5853 5853 5854 5854 5854 5855 5854 5855 5856 5857 5859 5861 5862 5862 5863 5863 5865 5867 5869 5871 5872 5872 5874 5875 5876 5878 5880 5881 5883 5885 5886 5887 5888 5890 5890 5891 5893 5894 5895 5896 5896 5897 5899 5902 5903 5904 5904 5904 5904 5905 5907 5908 5909 5910 5910 5910 5911 5912 5913 5914
5845 5847 5849 5851 5851 5852 5853 5853 5853 5853 5853 5854 5855 5857 5859 5861 5861 5862 5862 5862 5863 5865 5866 5867 5868 5869 5869 5871 5873 5875 5877 5879 5881 5882 5883 5884 5884 5885 5886 5888 5889 5891 5891 5891 5892 5895 5898 5899 5899 5899 5900 5900 5900 5900 5902 5904 5905 5905 5906 5906 5908 5909 5910
5841 5843 5846 5848 5849 5850 5851 5851 5852 5852 5853 5853 5853 5855 5857 5859 5860 5861 5861 5861 5861 5862 5863 5863 5864 5864 5865 5865 5867 5869 5872 5875 5877 5878 5878 5879 5879 5879 5881 5883 5884 5885 5886 5886 5888 5890 5893 5893 5892 5892 5894 5895 5895 5895 5895 5897 5898 5899 5900 5902 5903 5905 5906
5837 5840 5842 5844 5846 5848 5849 5850 5850 5851 5852 5852 5852 5853 5854 5856 5858 5858 5859 5860 5860 5860 5861 5861 5861 5861 5861 5862 5863 5865 5867 5869 5872 5872 5872 5872 5874 5874 5875 5876 5877 5878 5879 5881 5882 5884 5885 5886 5886 5886 5887 5889 5890 5889 5889 5891 5892 5892 5894 5896 5898 5900 5901
5834 5837 5839 5841 5844 5846 5847 5848 5849 5850 5850 5851 5851 5852 5852 5854 5855 5856 5857 5858 5859 5859 5859 5859 5859 5859 5860 5860 5861 5862 5863 5865 5866 5867 5866 5866 5868 5869 5870 5870 5870 5871 5873 5874 5875 5876 5878 5879 5880 5880 5881 5882 5884 5884 5884 5886 5888 5888 5889 5890 5892 5893 5895
5832 5835 5837 5839 5841 5843 5845 5846 5847 5848 5849 5849 5850 5850 5851 5852 5853 5854 5855 5856 5857 5857 5857 5857 5857 5857 5858 5858 5859 5859 5859 5859 5860 5861 5861 5861 5862 5863 5866 5866 5864 5865 5866 5867 5868 5870 5870 5871 5872 5873 5874 5875 5877 5879 5879 5881 5883 5884 5884 5885 5887 5887 5889
5831 5833 5834 5836 5838 5840 5842 5844 5845 5846 5846 5847 5847 5848 5849 5850 5851 5852 5853 5853 5854 5854 5855 5855 5855 5855 5855 5856 5856 5856 5856 5855 5855 5855 5856 5857 5858 5859 5861 5860 5859 5859 5861 5861 5862 5863 5863 5864 5865 5867 5869 5870 5872 5874 5875 5876 5878 5879 5879 5880 5882 5883 5884
5829 5830 5832 5833 5835 5836 5838 5840 5842 5843 5843 5844 5845 5845 5845 5846 5848 5849 5850 5850 5851 5851 5852 5852 5852 5852 5853 5853 5853 5853 5853 5853 5852 5852 5852 5853 5854 5855 5855 5855 5854 5855 5855 5856 5856 5857 5857 5857 5859 5861 5863 5865 5866 5868 5870 5872 5874 5875 5875 5876 5877 5878 5880
5825 5827 5829 5830 5832 5833 5835 5836 5838 5839 5840 5841 5841 5842 5842 5843 5844 5845 5846 5847 5848 5848 5849 5849 5850 5850 5850 5850 5851 5851 5851 5850 5850 5850 5850 5849 5850 5851 5851 5851 5852 5852 5851 5851 5851 5851 5852 5853 5854 5856 5857 5858 5860 5863 5866 5867 5869 5870 5870 5871 5872 5874 5875
5822 5823 5825 5827 5828 5830 5831 5833 5834 5835 5836 5837 5837 5838 5839 5839 5840 5841 5842 5843 5844 5845 5845 5846 5846 5847 5847 5847 5847 5848 5848 5847 5847 5847 5848 5847 5847 5847 5847 5848 5849 5849 5849 5848 5847 5847 5848 5849 5850 5852 5853 5854 5855 5858 5860 5861 5863 5864 5865 5866 5867 5868 5870
5818 5820 5821 5823 5824 5826 5828 5829 5830 5831 5832 5833 5834 5834 5835 5835 5836 5837 5838 5839 5840 5841 5842 5842 5843 5843 5843 5844 5844 5844 5844 5844 5844 5844 5845 5845 5845 5845 5845 5845 5845 5845 5846 5845 5845 5845 5845 5845 5846 5847 5848 5850 5851 5853 5855 5856 5858 5859 5860 5860 5861 5862 5863
5814 5816 5817 5819 5820 5822 5823 5825 5826 5827 5828 5829 5830 5830 5831 5831 5832 5833 5833 5834 5835 5836 5837 5838 5839 5839 5840 5840 5840 5841 5841 5841 5841 5841 5841 5841 5842 5842 5842 5842 5842 5842 5842 5843 5843 5843 5842 5842 5842 5843 5844 5845 5847 5848 5850 5852 5853 5854 5855 5855 5855 5856 5857
5810 5812 5813 5815 5817 5818 5819 5821 5822 5823 5824 5825 5826 5826 5827 5828 5828 5829 5829 5830 5831 5832 5833 5834 5835 5835 5836 5836 5836 5837 5837 5837 5838 5838 5838 5838 5838 5838 5838 5839 5839 5839 5839 5839 5839 5839 5840 5840 5841 5841 5841 5842 5843 5844 5846 5848 5849 5850 5850 5849 5849 5849 5851
5807 5808 5809 5811 5813 5814 5816 5817 5818 5819 5820 5821 5822 5822 5823 5824 5824 5825 5825 5826 5827 5828 5828 5829 5830 5831 5831 5832 5832 5832 5833 5833 5833 5834 5835 5835 5835 5834 5834 5835 5835 5835 5835 5836 5836 5836 5837 5837 5838 5839 5840 5840 5841 5841 5842 5843 5844 5845 5845 5844 5843 5844 5845
5804 5805 5806 5807 5809 5811 5812 5814 5815 5816 5816 5817 5818 5818 5819 5820 5820 5821 5822 5822 5823 5823 5824 5825 5826 5826 5827 5827 5828 5828 5828 5829 5829 5829 5830 5830 5831 5831 5831 5831 5831 5831 5832 5832 5832 5833 5834 5834 5835 5837 5837 5838 5839 5839 5838 5839 5839 5839 5839 5839 5839 5839 5840
5802 5803 5804 5805 5806 5807 5809 5810 5811 5812 5813 5814 5814 5815 5816 5816 5816 5817 5818 5818 5819 5819 5820 5821 5821 5822 5823 5823 5824 5824 5824 5825 5825 5825 5825 5826 5826 5826 5827 5827 5827 5828 5828 5828 5828 5829 5830 5830 5831 5832 5833 5834 5835 5835 5835 5835 5835 5835 5835 5836 5836 5836 5836
5800 5801 5802 5803 5804 5805 5806 5807 5808 5809 5810 5811 5812 5812 5813 5813 5813 5813 5814 5815 5815 5816 5816 5817 5817 5818 5818 5819 5819 5820 5820 5821 5821 5821 5821 5821 5821 5822 5822 5822 5823 5823 5823 5823 5824 5824 5825 5826 5826 5827 5828 5829 5830 5830 5830 5830 5830 5831 5831 5832 5832 5833 5833
5798 5799 5800 5801 5801 5802 5803 5804 5805 5806 5807 5808 5809 5809 5810 5810 5810 5810 5810 5811 5812 5812 5813 5813 5813 5814 5814 5815 5815 5816 5816 5817 5817 5817 5817 5817 5817 5817 5817 5818 5818 5818 5818 5819 5819 5819 5820 5821 5821 5822 5823 5823 5824 5824 5824 5825 5825 5825 5826 5826 5827 5827 5828
5796 5797 5798 5799 5799 5800 5801 5801 5802 5804 5805 5806 5806 5806 5807 5807 5807 5807 5808 5808 5808 5809 5809 5810 5810 5810 5811 5811 5811 5811 5812 5812 5813 5813 5813 5813 5813 5813 5813 5813 5813 5814 5814 5814 5814 5814 5815 5815 5816 5816 5817 5818 5818 5819 5819 5819 5819 5820 5820 5821 5821 5821 5822